Regional Weather Roundup
Issued by NWS

Home | Current Version | Previous Version | Graphics & Text | Print | Product List | Glossary On
Versions: 1 2 3 4 5 6 7 8 9 10 11 12 13 14 15 16 17 18 19 20 21 22 23 24 25 26 27 28 29 30 31 32 33 34 35 36 37 38 39 40 41 42 43 44 45 46 47 48 49 50
000
ASUS43 KLMK 212310
RWRKY
KENTUCKY REGIONAL WEATHER ROUNDUP
NATIONAL WEATHER SERVICE LOUISVILLE KY
700 PM EDT SAT APR 21 2018

NOTE "FAIR" INDICATES FEW OR NO CLOUDS BELOW 12,000 FEET
WITH NO SIGNIFICANT WEATHER AND/OR OBSTRUCTIONS TO VISIBILITY.

KYZ001>023-026-027-061>063-070>075-220000-
WESTERN AND SOUTH CENTRAL KENTUCKY

CITY           SKY/WX    TMP DP  RH WIND       PRES   REMARKS
PADUCAH        FAIR      71  35  26 E12       30.13R
HENDERSON      FAIR      68  35  29 E10       30.18
OWENSBORO      FAIR      70  33  25 E12       30.18F
HOPKINSVILLE   FAIR      71  37  29 E14       30.15F
BOWLING GREEN  FAIR      68  39  34 NE8       30.19F
GLASGOW        FAIR      69  36  29 NE7       30.19F
$$

KYZ024-025-028>034-038-045-046-053-220000-
NORTH CENTRAL KENTUCKY

CITY           SKY/WX    TMP DP  RH WIND       PRES   REMARKS
LOUISVILLE/SDF PTSUNNY   68  26  20 E10       30.24F
LOUISVILLE/LOU FAIR      67  28  23 E10       30.25F
FORT KNOX      FAIR      67  30  25 NE10      30.23F
$$

KYZ035>037-039>044-047>052-055>060-089>105-220000-
NORTHEAST KENTUCKY

CITY           SKY/WX    TMP DP  RH WIND       PRES   REMARKS
LEXINGTON      FAIR      62  33  33 NE10      30.27F
COVINGTON      CLOUDY    59  19  21 E10       30.30F
FRANKFORT      FAIR      63  28  26 E6        30.25F
$$

KYZ054-064>069-076>088-106>120-220000-
SOUTHEAST KENTUCKY

CITY           SKY/WX    TMP DP  RH WIND       PRES   REMARKS
JACKSON        FAIR      68  26  20 VRB5      30.25F
LONDON         FAIR      70  26  19 NE3       30.22F
SOMERSET       FAIR      68  34  28 MISG      30.23F
MIDDLESBORO    FAIR      72  32  23 E3        30.22F
MONTICELLO     FAIR      70  37  29 N14       30.23F
$$





USA.gov is the U.S. government's official web portal to all federal, state and local government web resources and services.